Wind_Speed
30 28 27 26 25 25 24 23 23 20 18 18 18 18 19 19 21 21 21 20 17 16 22 30 30 29 22 23 30 32 28 29 28 31 32 33 32 31 29 27 23 24 28
33 31 29 28 27 27 26 28 27 24 22 20 20 22 21 22 21 23 25 23 22 19 21 28 28 24 28 25 28 33 32 32 30 31 31 33 33 33 29 27 27 26 30
37 35 34 32 32 31 32 32 32 30 28 25 23 23 25 25 24 24 27 28 25 23 22 25 33 27 27 25 29 29 33 31 31 30 34 35 34 33 29 30 31 29 28
40 39 38 37 37 36 36 36 35 34 32 31 28 26 26 28 28 28 26 31 28 26 25 27 30 33 30 28 28 32 31 32 33 35 33 33 35 36 35 35 33 31 29
41 41 41 41 40 40 41 41 41 40 39 35 33 32 30 30 31 32 32 32 35 28 30 30 30 31 35 33 33 32 31 34 36 36 36 34 36 37 34 36 33 32 30
46 46 45 45 44 44 45 45 45 44 43 41 39 37 36 34 33 36 36 36 36 36 33 33 33 31 32 34 35 34 37 35 35 37 40 40 37 36 35 33 31 31 31
48 48 48 48 47 47 48 48 48 47 48 46 45 43 41 40 39 37 40 40 40 41 38 37 39 37 33 34 34 35 37 40 40 37 36 38 39 37 36 34 35 35 32
51 52 51 51 51 51 52 51 51 51 50 51 51 50 48 46 46 45 46 46 45 44 44 42 41 40 37 37 37 37 37 39 43 44 41 41 39 38 40 38 38 38 37
53 54 55 55 55 54 54 54 54 55 56 56 56 55 51 48 49 50 50 51 49 48 47 47 44 47 44 40 41 40 39 39 40 42 43 44 42 42 41 36 42 37 35
51 54 56 57 57 57 57 58 59 60 61 60 59 58 57 57 56 53 55 55 56 51 53 50 52 49 51 48 46 46 44 42 42 43 42 40 41 43 43 39 39 39 33
53 55 57 59 59 60 61 64 65 66 66 65 64 64 64 63 62 60 59 60 60 60 57 56 54 57 56 55 53 51 51 47 45 45 44 43 42 40 40 39 38 38 38
62 62 61 61 62 65 68 69 68 64 61 58 58 57 56 55 55 57 59 62 66 67 65 64 62 62 61 61 58 57 56 54 49 48 45 44 43 42 42 42 41 41 39
56 59 60 63 64 64 62 60 62 60 56 54 52 51 51 51 51 52 53 55 59 66 72 70 70 68 67 65 65 62 60 59 57 51 51 49 47 44 43 43 43 42 41
49 54 56 59 62 64 66 65 65 63 62 59 57 56 54 53 53 51 51 52 52 55 62 73 77 74 72 72 67 67 67 65 62 60 55 53 53 50 48 47 46 44 42
44 46 50 52 54 57 59 62 63 64 69 70 67 63 61 60 59 57 54 52 51 53 55 60 70 79 79 76 74 70 68 70 68 67 64 60 55 56 54 51 50 49 48
44 46 49 51 51 54 52 54 57 61 63 64 67 72 71 68 64 62 60 57 54 54 54 55 59 67 77 82 81 75 73 71 72 70 68 66 65 60 59 58 56 54 51
48 49 49 50 52 53 53 51 50 54 59 62 64 65 66 72 75 70 66 63 59 57 57 58 57 57 64 75 82 84 79 74 74 74 73 70 69 68 65 63 61 61 57
52 52 53 54 54 56 55 57 55 52 54 58 62 64 66 66 69 73 76 71 67 64 62 63 62 61 60 64 72 79 83 82 78 76 76 76 74 73 72 71 68 66 64
58 58 55 57 58 57 57 57 61 62 59 55 56 59 62 68 71 71 73 78 75 72 69 68 67 66 64 62 68 71 75 80 83 84 80 78 78 76 77 77 76 72 72
64 65 64 62 60 61 60 60 61 64 65 63 63 60 62 66 70 73 73 75 80 80 78 76 74 73 72 69 67 68 71 75 80 86 87 86 81 79 78 80 81 80 80
68 69 66 64 64 64 65 68 67 67 69 72 69 70 68 66 67 72 77 78 78 82 86 83 82 80 78 77 74 74 73 73 74 78 85 90 89 88 84 82 81 79 81
71 73 75 72 70 70 69 68 71 75 74 74 77 76 76 74 73 71 72 78 81 83 84 88 90 88 86 83 79 79 78 78 77 78 79 83 89 93 93 90 88 86 83
74 75 74 72 73 75 73 72 72 72 77 79 79 83 83 83 83 81 81 79 79 83 87 88 90 94 93 91 87 85 83 82 83 81 81 81 83 86 92 95 96 95 93
76 77 79 79 80 79 80 80 81 79 76 78 86 86 87 90 87 89 89 89 86 86 82 88 93 93 94 98 95 93 91 88 87 85 85 85 84 85 86 89 95 96 95
83 81 80 81 85 88 91 89 92 92 88 83 85 87 94 93 95 97 94 92 93 95 90 88 87 90 96 97 99 101 99 97 94 92 91 89 88 88 87 87 88 91 96
87 88 86 87 92 95 96 98 98 99 98 94 91 91 93 93 98 101 102 101 98 97 99 100 99 97 92 91 99 101 104 104 103 101 98 98 94 92 90 90 90 90 90
Wind_Direction
233 237 237 242 244 247 251 262 267 269 273 268 265 261 250 243 244 243 241 241 243 235 227 211 216 218 217 215 216 214 206 203 212 208 211 215 214 207 207 212 216 223 227
236 240 244 245 248 251 258 265 268 267 270 273 270 264 256 247 244 244 241 240 240 237 226 221 216 224 220 218 218 218 218 207 213 217 214 210 212 211 211 222 226 229 233
241 245 247 249 252 255 262 263 266 266 267 267 267 270 261 253 248 245 243 240 240 241 230 224 223 217 221 218 220 218 221 220 211 218 215 214 214 216 218 219 222 224 232
247 250 252 255 256 259 261 263 263 265 267 265 265 264 265 257 250 245 247 243 240 246 243 233 228 225 215 220 226 219 221 223 223 223 220 215 215 218 219 222 227 231 238
250 255 257 258 258 259 262 263 264 266 265 263 264 263 261 260 257 248 242 244 241 248 244 242 236 234 230 222 220 226 224 223 224 224 224 222 221 226 228 232 235 236 242
250 252 255 257 259 260 260 262 264 263 263 263 262 262 261 257 256 254 248 241 241 241 244 245 239 234 236 236 229 223 226 225 226 225 226 228 230 232 233 239 237 248 249
253 256 257 258 259 259 261 261 261 262 264 265 264 261 259 258 257 253 252 248 241 235 240 244 244 239 235 239 240 236 228 228 227 229 229 228 231 235 238 240 241 246 250
256 257 258 258 259 260 261 262 262 262 263 264 265 264 261 255 254 253 250 248 246 240 237 239 243 241 238 239 239 240 239 234 233 234 229 228 229 230 234 234 234 237 237
258 259 260 261 261 262 264 263 263 266 267 267 266 264 262 259 254 252 249 246 246 245 239 236 241 240 241 238 239 242 239 240 239 239 239 236 236 239 234 239 237 243 242
267 266 265 265 264 264 263 261 264 267 269 267 266 265 263 262 259 252 248 246 242 243 242 239 239 240 241 244 242 242 243 242 241 241 241 242 242 240 242 246 245 245 247
258 260 259 258 258 259 261 263 266 268 268 267 265 265 265 265 263 258 250 245 243 242 241 238 238 240 242 244 244 245 244 243 244 242 242 242 243 243 243 242 242 246 246
262 261 262 262 264 265 265 264 266 267 265 264 263 261 260 259 258 256 253 248 244 243 242 240 237 238 239 241 241 243 243 243 243 244 241 240 241 243 246 246 247 245 245
267 266 266 266 266 264 261 263 264 261 258 258 258 259 258 256 255 255 254 252 248 242 239 239 239 239 238 239 241 240 242 243 241 241 243 243 243 242 244 246 246 247 247
273 270 268 267 266 265 263 264 262 261 260 258 256 256 257 257 256 255 255 254 252 248 243 237 236 237 237 240 238 240 239 241 242 240 240 244 243 243 243 245 247 249 250
269 266 266 266 266 267 267 267 266 265 261 259 257 254 254 255 255 256 256 255 253 251 247 241 238 235 237 238 239 238 241 240 241 241 240 239 243 243 242 242 244 247 250
275 272 269 266 261 263 265 264 265 264 265 264 260 259 257 254 253 254 254 254 254 252 249 247 244 239 236 235 236 238 238 238 241 241 240 241 242 241 242 240 242 244 248
283 281 279 278 275 270 264 260 263 262 263 263 263 262 259 257 253 251 251 251 250 250 249 246 244 243 242 237 238 237 237 238 237 240 243 242 240 241 242 245 247 247 246
281 281 281 282 282 280 278 276 267 272 264 261 260 261 259 258 258 256 251 248 247 247 245 244 246 246 243 239 238 239 239 237 237 238 240 241 242 243 242 243 245 248 249
286 288 285 279 276 276 277 275 277 276 274 270 263 259 255 257 255 253 251 249 246 244 244 245 245 247 246 245 242 239 239 237 237 238 237 239 241 242 244 244 245 245 247
285 286 284 282 281 273 271 271 271 270 269 269 267 263 257 255 253 252 250 249 246 244 243 243 243 242 244 246 246 245 243 240 238 238 239 238 238 239 243 245 247 247 248
284 284 281 280 281 280 275 269 267 266 264 263 263 260 261 256 255 254 251 249 247 245 243 245 245 242 242 243 243 244 244 244 243 242 240 240 240 239 240 241 244 248 252
281 280 281 279 277 275 275 278 271 266 262 261 259 258 259 259 257 255 254 252 248 247 246 244 243 243 244 244 242 242 243 243 243 243 243 244 243 243 241 241 243 244 246
286 284 282 280 276 276 274 273 275 273 264 259 258 257 256 259 259 256 255 254 251 250 247 245 244 244 243 243 243 243 242 242 243 243 243 243 244 244 244 244 244 244 245
284 286 283 279 277 276 273 272 272 270 268 261 255 255 257 254 256 258 259 256 255 254 251 249 247 245 245 243 243 243 243 243 244 243 243 244 244 245 245 246 247 247 248
285 283 281 278 278 278 277 274 272 267 264 261 258 255 253 254 255 255 255 255 252 252 252 250 248 248 246 245 245 243 243 243 243 243 244 245 244 245 246 246 247 248 249
287 283 282 281 280 278 275 276 273 270 267 261 256 255 253 253 253 254 254 254 253 253 253 252 250 249 247 248 246 244 244 244 243 243 243 245 245 245 245 247 248 249 250
Height
10827 10829 10831 10834 10836 10837 10838 10839 10840 10842 10843 10844 10846 10846 10848 10849 10851 10852 10852 10853 10854 10855 10856 10858 10860 10862 10864 10864 10867 10869 10872 10874 10876 10879 10881 10883 10886 10888 10891 10893 10895 10897 10899
10823 10825 10828 10831 10832 10834 10836 10836 10836 10838 10840 10841 10842 10843 10844 10845 10847 10849 10850 10851 10852 10852 10854 10856 10858 10859 10862 10862 10864 10866 10869 10871 10873 10874 10877 10880 10883 10884 10887 10889 10891 10893 10895
10819 10821 10824 10826 10828 10830 10830 10831 10832 10834 10835 10837 10838 10839 10841 10842 10843 10845 10847 10848 10849 10850 10851 10852 10855 10857 10858 10860 10861 10863 10865 10867 10870 10871 10873 10876 10879 10881 10884 10885 10887 10888 10890
10813 10816 10819 10821 10822 10825 10825 10824 10826 10828 10830 10832 10834 10835 10836 10838 10839 10841 10842 10844 10846 10847 10848 10848 10850 10853 10854 10857 10858 10859 10861 10863 10865 10868 10870 10872 10874 10876 10878 10881 10882 10884 10885
10807 10809 10812 10814 10816 10818 10818 10818 10820 10822 10822 10825 10827 10829 10831 10832 10834 10836 10837 10839 10841 10843 10843 10844 10845 10847 10849 10851 10853 10855 10857 10859 10861 10863 10865 10867 10869 10872 10874 10876 10878 10880 10880
10799 10802 10804 10807 10808 10810 10811 10810 10812 10813 10815 10818 10820 10821 10824 10825 10827 10828 10831 10833 10835 10838 10838 10839 10840 10842 10843 10845 10847 10849 10852 10854 10855 10858 10860 10862 10864 10866 10868 10871 10872 10873 10874
10791 10793 10796 10798 10799 10800 10802 10803 10804 10805 10806 10807 10810 10813 10815 10818 10820 10822 10822 10825 10827 10830 10832 10832 10834 10836 10837 10839 10840 10843 10845 10847 10850 10852 10854 10856 10859 10860 10862 10864 10866 10867 10868
10784 10785 10787 10789 10789 10790 10791 10793 10794 10796 10797 10798 10800 10802 10806 10809 10810 10812 10814 10816 10818 10822 10824 10826 10827 10829 10831 10834 10834 10836 10839 10840 10842 10845 10847 10850 10852 10854 10856 10857 10858 10860 10862
10777 10778 10779 10780 10781 10781 10782 10783 10784 10786 10787 10788 10789 10791 10793 10796 10800 10801 10803 10805 10808 10812 10815 10818 10819 10821 10824 10826 10829 10829 10831 10834 10836 10837 10839 10841 10844 10846 10848 10850 10851 10854 10855
10764 10765 10765 10766 10767 10768 10769 10770 10771 10772 10773 10775 10776 10778 10780 10783 10786 10789 10791 10793 10796 10800 10804 10808 10810 10811 10814 10818 10821 10822 10823 10826 10828 10830 10831 10834 10836 10838 10840 10842 10843 10845 10848
10747 10748 10749 10750 10750 10751 10753 10755 10756 10757 10758 10760 10762 10764 10766 10767 10769 10773 10777 10780 10783 10786 10791 10795 10799 10801 10803 10808 10811 10813 10814 10817 10819 10821 10824 10826 10828 10830 10832 10834 10835 10837 10840
10740 10739 10738 10739 10740 10741 10742 10741 10741 10742 10744 10745 10747 10748 10750 10752 10754 10756 10760 10763 10768 10772 10776 10782 10785 10787 10791 10794 10798 10801 10803 10807 10809 10812 10816 10817 10820 10822 10824 10826 10828 10828 10831
10726 10726 10727 10727 10727 10727 10726 10728 10728 10728 10729 10731 10733 10735 10737 10738 10740 10742 10744 10747 10750 10754 10761 10766 10770 10775 10777 10779 10784 10789 10793 10796 10799 10801 10805 10807 10810 10813 10816 10817 10819 10821 10823
10712 10711 10712 10713 10712 10712 10713 10715 10715 10716 10717 10718 10719 10722 10724 10726 10727 10729 10731 10732 10734 10737 10742 10749 10753 10759 10763 10766 10770 10774 10779 10783 10786 10790 10793 10797 10800 10803 10807 10808 10810 10812 10815
10699 10698 10698 10698 10697 10696 10698 10698 10698 10699 10702 10703 10704 10706 10709 10711 10714 10716 10719 10719 10721 10722 10726 10730 10735 10742 10747 10751 10756 10760 10764 10768 10773 10777 10780 10785 10788 10791 10795 10798 10800 10802 10805
10686 10685 10684 10684 10683 10682 10683 10683 10683 10683 10683 10686 10688 10692 10694 10696 10699 10702 10705 10707 10709 10710 10712 10715 10719 10724 10729 10736 10741 10744 10749 10754 10758 10763 10767 10772 10777 10779 10781 10785 10788 10790 10793
10676 10674 10673 10671 10669 10668 10668 10667 10668 10668 10669 10670 10672 10674 10677 10680 10682 10685 10689 10692 10695 10697 10699 10702 10705 10708 10712 10718 10722 10728 10735 10741 10745 10749 10754 10758 10762 10766 10770 10773 10777 10778 10782
10664 10662 10661 10659 10658 10656 10654 10652 10651 10651 10653 10654 10656 10659 10661 10663 10667 10668 10671 10675 10679 10682 10684 10687 10691 10694 10697 10701 10705 10711 10718 10725 10730 10735 10740 10743 10747 10751 10756 10761 10764 10766 10769
10649 10647 10645 10644 10643 10643 10641 10639 10637 10636 10636 10638 10640 10642 10643 10644 10646 10649 10653 10657 10662 10665 10669 10672 10676 10680 10684 10687 10690 10694 10699 10706 10713 10719 10723 10727 10733 10738 10741 10745 10748 10753 10756
10634 10632 10629 10628 10626 10625 10624 10624 10623 10622 10622 10622 10622 10625 10626 10626 10628 10630 10633 10637 10642 10645 10649 10652 10657 10661 10665 10671 10677 10681 10684 10688 10693 10699 10705 10712 10716 10720 10725 10729 10733 10737 10739
10617 10614 10613 10611 10609 10608 10606 10605 10605 10604 10605 10605 10605 10607 10608 10609 10610 10612 10615 10617 10620 10624 10629 10636 10639 10641 10645 10651 10659 10662 10668 10673 10678 10681 10684 10691 10697 10703 10709 10714 10718 10723 10724
10602 10598 10594 10592 10590 10588 10587 10586 10584 10583 10585 10587 10587 10587 10587 10589 10591 10593 10594 10596 10599 10603 10607 10613 10617 10622 10629 10633 10639 10644 10650 10655 10659 10662 10667 10672 10677 10684 10690 10694 10700 10706 10710
10578 10575 10573 10571 10568 10566 10564 10563 10561 10560 10561 10563 10565 10565 10566 10567 10568 10571 10572 10574 10578 10582 10585 10589 10594 10600 10605 10612 10619 10625 10631 10636 10639 10646 10650 10654 10658 10664 10669 10673 10679 10685 10691
10555 10552 10548 10546 10545 10542 10540 10538 10537 10537 10537 10537 10539 10541 10542 10543 10545 10546 10547 10551 10555 10560 10564 10566 10570 10577 10583 10588 10596 10602 10609 10615 10620 10626 10631 10636 10641 10644 10648 10654 10660 10666 10671
10533 10528 10524 10521 10517 10515 10513 10511 10510 10509 10511 10511 10512 10513 10515 10517 10518 10520 10522 10526 10531 10533 10538 10543 10547 10552 10558 10563 10572 10577 10585 10593 10598 10605 10610 10616 10622 10626 10631 10636 10640 10644 10648
10510 10505 10500 10495 10490 10487 10483 10480 10477 10477 10478 10481 10482 10485 10486 10488 10489 10490 10493 10498 10502 10506 10511 10515 10521 10528 10533 10539 10545 10553 10560 10567 10574 10582 10589 10592 10601 10606 10612 10618 10622 10625 10629